Location: Saratoga Springs
(43.0831°N, 73.7850°W)
Time: 02:48:59
(UTC-04:00)

Vanguard 1 Rocket - Pass Details

Date: 17 April 2024
Orbit: 651 x 4220 km, 34.3° (Epoch: 17 May)

Event Time Altitude Azimuth Distance (km) Brightness Sun altitude
Rises 18:14:50 0° 195° (SSW) 2,993 10.3 14.6°
Reaches altitude 10° 18:18:40 10° 160° (SSE) 2,299 9.3 13.9°
Maximum altitude 18:20:22 12° 140° (SE) 2,337 9.2 13.6°
Drops below altitude 10° 18:22:16 10° 121° (ESE) 2,629 9.3 13.3°
Sets 18:27:44 0° 91° (E) 4,240 10.2 12.3°
